User: anonymous   Login
Location: Unspecified
(0.0000°N, 0.0000°E)
Time: 19:16:46
(UTC+00:00)
Language:

STARLINK-32353 - Orbit

View from above orbital plane
View from above orbital plane
View from above satellite
View from above satellite

Ground track
Ground track

The orbit is defined by the following mean orbital elements,

1 61587U          26145.48140038 +.00000000 +00000-0 +65781-3 0 00006
2 61587  53.1589  67.4240 0001122  80.6543 279.4586 15.34404475    03
Epoch (UTC): 25 May 2026 11:33:12
Eccentricity: 0.0001122
inclination: 53.1589°
perigee height: 462 km
apogee height: 463 km
right ascension of ascending node: 67.4240°
argument of perigee: 80.6543°
revolutions per day: 15.34404475
mean anomaly at epoch: 279.4586°

The dashed part of the orbit path shows where the satellite is in the earth's shadow,  

DLR